Wind_Speed
41 40 40 42 36 33 40 42 38 35 36 38 38 35 33 29 28 28 27 28 27 27 26 27 28 30 31 31 32 34 36 38 38 40 42 40 38 38 39 42 44 47 49
40 42 41 42 38 36 37 43 41 38 38 39 39 33 32 30 27 27 31 30 29 29 29 29 30 32 33 35 37 39 41 40 39 40 39 40 40 41 42 45 48 50 53
44 42 42 44 39 38 37 40 42 39 40 39 37 32 31 30 28 29 32 32 31 32 33 33 34 35 37 39 41 44 45 43 42 42 42 40 39 41 44 47 52 55 57
45 41 44 45 39 38 38 38 43 40 40 38 34 33 33 32 31 29 32 35 35 36 37 38 38 39 40 43 45 47 46 45 45 44 42 44 45 47 47 47 50 54 60
48 43 42 45 39 40 40 38 42 43 40 37 34 33 36 33 32 32 34 35 37 38 39 39 40 42 44 46 49 49 47 47 45 44 46 48 51 54 56 55 56 59 59
50 47 44 44 39 41 42 40 39 42 40 37 35 35 36 36 35 35 37 38 37 38 40 40 42 43 46 50 50 49 48 46 45 47 49 52 54 57 61 63 64 62 63
48 48 46 45 40 41 43 40 40 42 41 37 37 37 36 37 37 37 40 41 40 40 41 42 43 46 48 50 49 48 47 47 48 51 54 56 58 62 66 67 66 67 70
48 48 46 43 40 42 45 43 41 41 40 39 37 37 37 36 36 37 39 41 42 41 41 42 44 46 48 47 47 48 48 49 52 55 57 60 64 68 68 69 73 73 71
50 50 47 42 38 41 46 43 41 41 40 39 38 37 37 37 37 37 38 40 42 41 40 41 44 45 46 46 48 49 50 53 56 59 61 64 65 66 71 74 76 75 75
49 50 48 44 38 41 45 45 42 41 40 38 37 37 36 37 38 37 37 37 39 38 39 41 43 44 47 48 48 50 53 56 59 62 63 62 68 72 75 75 74 77 76
42 48 45 44 39 41 45 45 40 41 38 35 35 35 36 38 39 38 36 37 38 38 39 41 43 46 47 48 50 54 57 60 61 59 64 69 72 75 73 75 77 78 82
45 42 40 38 37 41 46 44 41 38 35 34 33 34 36 39 39 38 37 38 38 39 40 42 44 46 48 51 54 57 58 57 62 65 68 72 73 72 76 78 80 84 89
45 40 37 35 38 42 45 44 40 37 35 34 34 35 37 38 40 39 39 38 37 39 41 42 44 47 50 54 55 56 59 62 66 69 72 71 73 75 77 81 86 91 97
42 39 36 37 40 43 43 41 39 37 35 36 36 36 37 38 39 39 36 35 38 40 40 43 46 49 52 54 57 60 63 66 69 71 70 73 75 77 82 87 92 98 103
40 38 38 38 40 41 40 38 36 35 35 35 34 34 34 36 37 34 35 37 38 40 42 46 49 52 54 58 61 63 65 68 68 70 72 74 78 83 88 92 97 105 110
38 38 34 34 37 37 34 32 32 33 34 33 33 33 33 32 33 34 34 36 39 41 45 48 52 54 58 60 63 65 68 67 70 70 74 78 84 88 92 98 106 112 111
32 32 31 30 31 33 32 31 31 32 32 32 31 27 28 30 31 32 35 37 41 45 48 50 54 57 59 61 65 66 67 68 70 73 78 83 87 94 99 104 111 101 87
30 30 30 28 27 26 27 29 30 29 26 24 24 25 26 28 31 33 36 40 44 47 50 54 56 58 61 64 64 66 66 70 73 78 83 88 94 100 105 109 94 80 72
21 22 22 24 25 24 23 22 22 21 19 20 22 24 25 29 32 36 40 43 46 50 52 54 57 61 62 63 64 65 68 73 78 83 88 94 99 105 105 91 77 67 55
15 15 15 17 17 16 15 16 17 17 18 19 20 23 27 31 36 38 42 45 48 49 52 57 59 60 62 62 65 68 72 76 82 87 93 99 104 99 84 74 64 50 40
14 14 14 14 13 12 13 14 14 14 16 19 22 27 32 34 38 41 43 45 47 51 54 56 59 59 61 63 66 72 77 82 87 93 99 104 95 79 70 61 47 35 31
11 8 5 7 10 12 11 11 13 16 19 23 28 30 33 36 38 40 43 46 49 51 54 56 57 59 62 66 71 77 82 88 93 99 103 91 75 66 56 43 32 34 32
12 12 12 13 11 11 13 15 17 21 23 26 29 32 34 36 38 41 45 47 49 51 53 54 56 59 64 70 75 80 86 92 99 99 86 74 63 51 37 32 34 31 34
12 11 11 12 13 14 16 17 18 21 24 27 30 32 34 37 41 43 45 48 50 51 52 54 58 64 69 73 79 84 91 98 97 83 71 60 45 32 33 33 34 32 31
13 11 12 13 16 13 15 17 21 25 27 29 30 33 36 39 41 44 46 47 49 50 53 58 63 68 72 78 84 92 98 97 81 69 54 38 32 34 33 33 32 33 33
12 13 14 11 12 15 19 22 26 28 29 30 32 35 36 39 42 44 45 46 49 54 59 64 68 73 78 84 91 96 89 75 65 48 34 31 32 30 29 30 30 30 30
Wind_Direction
248 243 242 247 247 243 237 243 245 250 254 255 254 257 255 256 263 264 250 248 255 261 266 270 275 280 287 287 284 285 288 291 290 291 295 294 294 292 291 290 291 291 292
249 244 242 245 243 242 240 239 243 245 249 254 250 255 256 256 260 259 246 249 256 262 269 273 277 283 284 286 288 289 292 292 290 291 292 292 292 293 293 294 293 293 294
246 246 246 244 240 236 240 241 242 242 247 253 252 252 256 254 255 257 250 251 258 264 269 274 279 283 284 286 289 290 293 293 290 290 290 287 287 288 289 292 294 296 299
246 244 247 247 239 235 236 239 243 244 247 251 254 251 254 253 255 259 255 256 262 266 270 275 280 284 287 287 289 290 294 290 292 292 291 290 290 291 290 288 290 293 295
245 242 241 245 239 236 233 237 240 244 248 254 256 255 252 253 254 258 260 263 264 267 272 276 281 284 286 288 289 291 291 290 292 292 293 293 294 295 296 296 294 296 296
239 240 238 241 236 238 235 235 238 242 249 254 254 255 252 251 254 258 263 264 267 272 275 278 282 285 286 287 290 291 291 293 292 293 294 294 295 295 296 297 297 297 296
234 238 238 239 237 238 237 234 239 240 245 252 253 255 257 255 255 259 265 266 268 272 276 279 282 284 285 288 289 291 293 293 294 295 296 297 296 296 298 299 299 299 298
231 234 235 236 234 234 234 234 238 240 244 251 254 254 256 257 257 260 265 267 269 272 276 281 283 285 287 287 290 292 293 295 296 296 296 297 299 300 300 300 299 299 300
226 228 231 232 233 231 232 231 234 239 244 252 256 257 258 259 258 262 267 270 272 275 280 282 284 285 287 290 292 293 295 296 298 300 300 300 300 301 302 302 303 302 301
229 229 230 231 227 226 229 231 233 237 243 249 255 258 259 259 259 262 268 273 276 280 282 283 285 287 290 292 294 296 297 299 300 300 300 301 303 304 304 305 304 304 303
224 226 228 228 219 221 225 229 232 237 243 249 254 259 258 259 261 265 271 277 280 282 284 286 288 289 292 295 297 299 300 301 301 301 303 304 306 307 306 306 305 304 303
219 222 221 217 213 217 221 225 231 238 244 249 254 258 260 262 266 270 275 279 282 284 285 288 291 293 296 298 300 303 302 302 303 304 306 307 309 307 307 305 304 305 306
213 214 216 212 209 214 220 225 231 238 245 251 254 257 261 266 270 275 277 280 283 285 288 291 293 296 299 302 303 303 303 304 306 306 309 309 307 307 305 306 307 308 308
207 206 205 206 208 213 219 225 231 240 248 253 255 259 264 269 273 277 279 282 284 286 289 292 295 299 302 303 303 304 305 306 308 310 309 308 307 307 308 308 310 310 309
193 194 197 203 209 214 221 228 235 244 250 253 258 262 268 273 277 278 279 282 285 287 291 296 300 302 302 303 303 305 306 310 310 309 308 307 308 309 310 310 311 310 310
183 185 192 202 210 218 227 232 238 245 250 252 258 264 270 275 274 277 282 283 286 293 297 300 302 303 303 303 305 307 310 309 308 307 308 309 310 311 311 311 312 312 312
178 186 192 200 208 216 223 234 241 245 250 256 261 267 269 270 276 279 281 289 295 298 300 301 302 302 303 305 308 309 308 308 308 309 310 310 312 312 312 312 314 313 312
189 194 199 207 216 226 233 239 243 248 252 254 258 264 268 272 276 283 291 295 297 298 300 301 302 304 306 308 308 308 308 309 310 311 311 313 313 313 313 315 314 314 311
193 187 199 209 218 224 230 234 238 242 248 254 258 262 271 279 286 290 292 294 296 299 300 303 305 307 308 307 307 308 309 310 312 313 313 313 312 314 316 315 315 314 309
154 169 182 190 197 203 213 223 232 238 245 255 267 278 285 287 288 290 293 296 299 301 303 305 306 306 306 308 309 310 313 313 314 314 312 313 315 317 315 316 315 313 310
168 183 188 185 191 209 221 230 240 253 267 275 280 283 285 287 291 292 295 299 301 303 305 304 305 307 308 310 312 313 314 314 314 313 314 316 318 316 316 316 315 313 310
164 167 185 209 221 230 239 253 263 268 274 278 282 285 288 290 292 297 300 302 303 304 305 306 307 309 312 313 314 315 314 314 315 316 317 318 316 316 316 317 316 314 314
199 200 215 225 233 247 256 261 268 275 280 284 287 289 292 296 299 301 302 303 304 305 306 308 310 312 312 313 314 314 315 316 317 319 318 318 317 317 318 317 316 316 314
224 220 227 238 245 253 262 270 277 285 289 292 294 297 300 300 302 303 304 305 306 307 309 311 312 313 313 314 315 316 317 318 320 319 318 317 317 318 318 320 320 320 320
227 233 242 248 255 260 273 283 290 294 299 301 302 301 302 303 304 305 306 306 307 309 311 312 314 314 315 316 317 318 319 321 320 321 321 322 321 323 324 323 324 325 324
240 241 255 261 273 276 283 291 299 305 306 304 303 304 305 306 306 306 307 309 311 312 315 316 316 316 317 319 320 321 322 321 324 326 327 326 327 329 331 330 330 334 336
Height
5741 5744 5747 5749 5753 5756 5760 5762 5764 5765 5766 5766 5768 5769 5770 5771 5772 5772 5773 5773 5774 5774 5773 5773 5772 5770 5768 5767 5765 5763 5761 5759 5755 5751 5747 5745 5740 5737 5734 5730 5727 5722 5718
5731 5734 5737 5740 5744 5747 5750 5753 5756 5758 5759 5759 5761 5762 5764 5765 5765 5765 5766 5767 5767 5767 5767 5766 5764 5763 5761 5759 5757 5754 5751 5749 5746 5743 5739 5735 5731 5727 5723 5720 5715 5711 5706
5721 5725 5728 5730 5735 5738 5741 5745 5747 5750 5751 5751 5754 5757 5758 5759 5758 5758 5759 5760 5760 5760 5760 5758 5757 5755 5753 5751 5749 5746 5742 5738 5736 5733 5729 5727 5724 5721 5717 5710 5703 5697 5692
5711 5715 5718 5721 5727 5730 5732 5735 5739 5742 5742 5744 5746 5750 5750 5751 5751 5751 5752 5752 5752 5752 5752 5750 5749 5747 5744 5742 5740 5736 5732 5728 5724 5720 5717 5714 5710 5708 5707 5704 5697 5690 5683
5698 5703 5707 5710 5718 5721 5723 5726 5730 5734 5735 5738 5740 5742 5743 5744 5744 5744 5745 5745 5745 5745 5744 5742 5740 5737 5735 5733 5730 5726 5722 5718 5713 5710 5705 5700 5695 5690 5686 5685 5683 5676 5668
5685 5690 5696 5700 5707 5712 5714 5718 5722 5726 5728 5730 5733 5734 5735 5736 5736 5737 5738 5738 5738 5737 5736 5733 5731 5728 5725 5723 5719 5714 5710 5706 5702 5697 5692 5687 5682 5676 5670 5666 5662 5658 5653
5672 5679 5686 5691 5698 5704 5707 5710 5714 5717 5721 5723 5724 5726 5727 5728 5729 5730 5730 5730 5730 5728 5726 5724 5721 5718 5716 5712 5707 5703 5699 5694 5689 5684 5678 5672 5666 5661 5654 5649 5644 5639 5633
5660 5667 5674 5682 5688 5694 5699 5702 5706 5710 5713 5715 5716 5718 5719 5720 5721 5722 5722 5722 5721 5719 5717 5714 5711 5709 5705 5701 5696 5692 5687 5682 5677 5671 5665 5658 5651 5644 5636 5630 5623 5621 5615
5647 5653 5662 5671 5679 5685 5690 5694 5699 5703 5705 5708 5709 5710 5712 5713 5713 5713 5714 5713 5712 5710 5708 5705 5702 5699 5694 5689 5685 5681 5676 5670 5664 5657 5651 5643 5635 5627 5619 5610 5602 5594 5593
5639 5645 5652 5660 5668 5675 5681 5686 5691 5695 5698 5700 5702 5704 5705 5706 5706 5705 5705 5705 5704 5701 5698 5695 5691 5687 5683 5678 5674 5669 5663 5656 5650 5643 5636 5627 5620 5610 5600 5591 5582 5573 5566
5628 5635 5643 5651 5658 5666 5673 5679 5684 5688 5691 5693 5695 5696 5697 5698 5698 5698 5697 5696 5694 5692 5688 5684 5680 5676 5672 5667 5662 5656 5649 5643 5636 5628 5620 5611 5601 5592 5582 5572 5562 5553 5542
5618 5627 5635 5644 5651 5658 5664 5670 5676 5681 5684 5686 5687 5688 5689 5690 5690 5690 5689 5687 5685 5682 5678 5674 5670 5666 5661 5655 5649 5642 5636 5629 5621 5612 5603 5593 5584 5574 5564 5554 5543 5532 5519
5609 5619 5630 5638 5645 5651 5658 5664 5669 5674 5677 5679 5680 5680 5681 5682 5683 5682 5680 5678 5675 5672 5668 5664 5660 5655 5649 5642 5636 5629 5622 5614 5605 5596 5586 5577 5568 5558 5547 5535 5523 5510 5496
5604 5613 5622 5632 5639 5646 5652 5659 5663 5667 5670 5672 5672 5673 5674 5674 5675 5674 5671 5669 5666 5663 5659 5654 5649 5643 5637 5630 5623 5616 5608 5599 5589 5579 5570 5561 5550 5539 5527 5515 5501 5488 5472
5599 5608 5617 5627 5635 5642 5648 5653 5657 5661 5663 5665 5665 5666 5667 5667 5667 5665 5663 5660 5657 5653 5649 5643 5637 5631 5624 5617 5610 5602 5594 5584 5574 5564 5554 5543 5531 5519 5506 5491 5476 5459 5443
5597 5606 5616 5624 5632 5638 5644 5648 5652 5654 5657 5658 5659 5659 5660 5660 5659 5657 5654 5652 5648 5643 5637 5631 5625 5619 5611 5604 5596 5587 5579 5569 5560 5549 5538 5526 5513 5501 5486 5470 5452 5432 5411
5600 5608 5615 5622 5629 5635 5639 5643 5646 5649 5651 5652 5652 5653 5653 5653 5651 5649 5646 5643 5637 5631 5626 5620 5614 5606 5599 5590 5582 5573 5564 5554 5544 5533 5521 5509 5495 5480 5465 5448 5429 5408 5388
5601 5607 5613 5620 5626 5631 5636 5639 5642 5644 5645 5645 5646 5646 5646 5645 5643 5641 5637 5631 5626 5621 5615 5608 5601 5593 5585 5577 5569 5559 5549 5538 5528 5516 5502 5488 5474 5456 5440 5425 5408 5391 5374
5602 5608 5614 5619 5623 5627 5630 5633 5636 5637 5638 5639 5639 5640 5639 5637 5634 5631 5626 5621 5616 5610 5603 5596 5588 5581 5572 5563 5554 5545 5535 5525 5512 5497 5481 5466 5452 5434 5417 5400 5387 5375 5361
5602 5607 5612 5616 5620 5623 5627 5630 5631 5632 5633 5634 5633 5632 5631 5628 5625 5621 5616 5611 5605 5598 5591 5583 5576 5568 5560 5550 5540 5531 5521 5509 5496 5480 5462 5444 5427 5408 5392 5379 5369 5360 5351
5604 5607 5611 5615 5618 5622 5624 5626 5626 5627 5628 5627 5627 5625 5623 5620 5616 5611 5606 5600 5594 5587 5580 5572 5564 5555 5547 5538 5527 5516 5502 5489 5476 5459 5440 5421 5403 5387 5375 5364 5355 5348 5343
5605 5608 5611 5614 5617 5619 5620 5621 5622 5623 5622 5621 5620 5617 5614 5610 5606 5601 5595 5589 5582 5576 5568 5560 5551 5542 5533 5523 5512 5499 5485 5470 5454 5436 5416 5399 5384 5372 5362 5353 5346 5341 5334
5604 5606 5609 5612 5614 5615 5616 5618 5618 5617 5615 5614 5612 5608 5605 5601 5595 5590 5584 5578 5572 5565 5557 5550 5541 5532 5521 5510 5497 5483 5468 5451 5432 5413 5394 5380 5368 5359 5351 5345 5339 5333 5327
5604 5605 5607 5609 5611 5612 5613 5613 5612 5610 5609 5606 5603 5599 5595 5590 5585 5579 5573 5567 5560 5554 5546 5538 5529 5519 5507 5495 5482 5467 5450 5432 5413 5395 5379 5366 5357 5351 5345 5337 5332 5325 5319
5603 5604 5606 5607 5608 5608 5608 5607 5605 5603 5600 5597 5594 5590 5585 5580 5575 5569 5563 5556 5550 5543 5535 5526 5516 5505 5493 5479 5464 5446 5428 5411 5394 5379 5365 5356 5349 5343 5337 5330 5324 5319 5313
5601 5602 5603 5603 5603 5603 5602 5600 5597 5595 5591 5588 5585 5581 5576 5571 5565 5559 5553 5547 5539 5531 5521 5511 5499 5487 5473 5460 5444 5426 5408 5393 5380 5367 5358 5351 5345 5339 5333 5326 5319 5313 5306